Location: Rio Negrinho
(26.2394°S, 49.4999°W)
Time: 23:54:19
(UTC+00:00)

Cosmos 494 Rocket - Pass Details

Date: 07 June 2020
Orbit: 743 x 770 km, 74.1° (Epoch: 13 July)

Event Time Altitude Azimuth Distance (km) Brightness Sun altitude
Exits shadow 08:01:01 82° 285° (WNW) 783 3.8 -26.1°
Drops below altitude 10° 08:06:15 10° 11° (N) 2,304 6.7 -25.0°
Sets 08:08:36 0° 12° (NNE) 3,224 7.6 -24.5°
